Theta_e
315 315 315 316 317 317 316 317 317 317 316 316 317 318 318 318 318 318 318 318 317 318 318 318 316 315 315 315 316 317 318 317 318 318 317 316 314 314 314 316 323 326 325 325
315 316 317 317 317 316 316 316 317 317 316 315 317 317 318 318 318 318 318 318 318 318 318 319 318 316 316 315 315 315 316 316 316 315 315 314 313 313 313 312 312 314 318 322
315 316 315 315 315 316 316 317 317 317 316 316 317 317 317 318 318 317 317 317 317 317 318 318 318 317 316 317 317 316 315 315 315 315 314 314 313 313 312 312 312 312 314 320
315 315 314 315 315 315 315 316 316 316 316 316 316 317 316 317 318 319 318 318 318 318 318 317 317 318 317 316 316 316 315 314 314 314 314 314 314 313 313 312 312 312 316 319
315 315 314 315 315 315 316 315 316 316 317 318 317 317 317 318 318 318 318 318 318 318 319 318 317 316 316 315 315 315 314 314 314 314 314 314 313 313 312 311 312 312 318 319
315 312 315 315 313 315 314 316 317 317 317 317 316 317 317 317 317 318 318 318 318 317 316 315 315 315 315 314 315 315 314 314 314 313 313 313 313 312 311 311 312 312 316 319
315 314 313 313 315 314 316 316 315 317 320 318 316 317 317 317 317 317 317 317 317 316 315 315 315 315 316 317 316 316 315 314 313 312 312 312 312 311 311 312 311 312 314 319
315 315 314 313 316 316 316 316 316 318 319 318 314 317 316 317 317 317 316 316 316 316 316 316 315 316 317 317 317 317 316 315 314 313 313 312 311 311 311 311 311 311 312 316
314 314 314 313 314 315 316 317 317 318 316 316 315 316 316 317 315 315 315 315 315 316 316 316 315 316 316 317 317 316 316 316 316 315 314 313 311 310 310 311 310 311 311 314
314 314 312 312 312 313 314 315 315 315 324 319 315 316 317 318 317 317 317 317 317 316 315 315 315 316 316 316 317 316 316 316 315 314 314 313 312 311 310 310 310 310 311 311
314 313 313 311 313 314 313 313 314 315 316 318 318 316 317 317 317 317 318 317 316 316 315 314 314 316 317 317 317 316 316 316 316 316 315 314 313 312 310 309 309 309 310 311
313 314 316 313 312 311 314 314 314 316 317 316 316 318 314 316 317 317 317 315 315 315 315 315 316 317 317 317 317 317 317 317 316 316 316 315 313 312 311 310 309 308 309 311
313 315 319 316 314 311 313 314 313 315 315 320 319 316 315 316 316 316 316 316 315 315 315 314 315 315 316 316 316 316 316 316 316 315 316 316 316 313 312 310 309 308 309 311
313 314 318 320 319 316 314 313 314 314 316 317 317 317 317 317 317 317 316 315 315 315 315 315 315 315 315 315 315 314 315 315 315 315 315 315 316 314 311 310 309 308 308 310
313 313 315 317 317 316 316 315 315 315 315 316 316 316 317 317 317 317 317 316 316 315 315 315 315 315 315 314 314 315 314 313 314 314 314 315 314 313 311 309 309 308 308 310
312 315 315 316 316 317 317 317 316 315 315 316 316 316 316 316 317 317 316 316 316 315 314 314 314 314 314 314 314 314 314 314 313 313 313 313 313 312 311 309 308 308 308 309
312 312 313 315 314 314 316 316 317 317 317 317 318 317 317 317 316 316 316 316 316 315 315 314 314 314 314 313 313 312 312 312 313 312 312 312 311 309 309 307 307 307 307 308
310 311 311 314 314 316 315 313 314 316 316 316 316 316 316 316 315 315 315 315 315 315 315 314 314 314 314 312 312 312 312 311 311 311 311 310 309 308 306 305 305 305 305 306
308 310 311 312 312 312 311 312 313 316 316 316 316 316 316 315 315 315 315 315 314 314 314 314 314 313 312 311 312 312 312 312 312 311 310 309 307 306 305 304 304 303 304 304
307 309 309 309 311 311 310 311 311 312 313 313 310 313 315 315 316 316 315 314 314 313 313 313 312 311 311 311 311 312 312 312 311 310 308 307 306 304 303 301 301 301 301 301
307 307 308 308 310 310 310 309 309 313 314 306 306 307 308 309 312 311 311 309 310 311 312 311 311 311 311 311 311 310 309 308 307 307 306 305 304 302 301 300 298 298 299 298
307 309 309 308 309 309 307 309 312 308 304 304 305 305 306 308 309 307 307 308 307 307 308 309 309 309 310 309 308 307 306 306 305 304 303 301 300 299 298 297 296 296 297 297
303 304 306 308 310 307 307 307 307 305 304 303 304 304 305 306 305 306 305 307 308 308 306 306 306 306 305 304 304 304 304 303 301 300 299 298 297 296 295 294 294 295 295 295
302 302 303 303 303 305 306 306 305 303 302 302 302 302 305 305 306 306 307 308 308 309 307 304 302 302 302 301 300 300 301 301 299 297 296 295 295 294 294 294 294 293 294 294
300 301 301 302 301 302 302 302 302 301 300 303 303 303 304 304 304 304 303 305 307 304 305 302 302 298 299 300 302 302 301 299 299 298 297 296 294 294 293 292 292 292 292 292
298 299 300 301 300 299 299 300 300 301 303 304 302 301 302 303 304 303 303 301 300 302 300 298 296 298 302 302 302 301 299 298 298 297 297 296 296 296 295 294 293 293 292 292
Wind_Speed
5 8 10 15 14 10 5 6 7 2 3 4 12 18 19 21 22 24 27 27 27 29 25 22 25 30 32 33 35 37 38 38 37 38 38 38 38 36 38 37 36 31 37 39
5 12 13 3 2 7 9 12 13 8 1 3 13 22 18 23 26 26 29 28 28 28 26 25 23 28 32 33 37 38 39 39 39 39 38 38 36 37 37 36 40 38 37 39
14 2 6 6 7 10 12 13 12 8 4 12 11 18 15 13 16 20 29 32 31 31 27 24 26 31 33 35 36 37 39 40 40 39 38 38 36 37 40 39 38 39 39 38
11 7 6 8 13 12 14 8 12 6 5 6 1 9 18 17 17 13 23 24 27 22 21 21 24 27 32 34 35 37 38 40 40 39 40 41 41 40 39 38 37 39 40 39
5 9 10 11 8 11 2 3 4 3 6 9 13 7 9 11 10 15 19 19 17 15 14 14 15 20 26 27 30 34 36 38 39 40 40 41 42 40 38 37 38 38 40 38
3 1 6 5 4 6 12 7 3 1 3 8 12 12 12 14 10 6 6 4 5 3 4 6 9 12 15 19 23 26 32 35 36 39 40 42 43 40 39 39 38 38 40 40
10 9 4 5 6 4 10 7 4 5 5 9 5 6 14 13 12 10 11 19 9 7 9 10 12 13 11 13 15 20 26 31 34 37 39 40 41 38 38 40 38 38 41 43
14 10 14 13 12 8 15 13 7 6 7 10 3 9 6 7 12 14 17 16 18 13 14 13 10 11 12 13 14 15 17 20 26 30 34 37 39 40 41 42 40 39 38 42
11 11 4 2 8 12 7 10 10 9 3 4 9 19 19 11 11 17 21 20 19 16 13 13 11 12 13 11 11 12 13 15 18 21 24 30 33 37 40 42 38 38 38 40
7 14 1 3 3 8 7 3 7 6 6 9 14 18 13 6 9 6 7 8 7 6 8 8 12 11 9 8 8 10 11 12 13 15 18 22 26 31 36 41 41 38 39 38
13 7 3 4 11 15 7 7 6 4 7 7 11 11 9 5 2 1 1 2 4 7 6 1 6 6 4 3 7 10 11 11 12 13 14 17 20 25 30 36 40 38 37 40
12 4 12 11 3 4 14 18 19 7 6 6 6 16 6 1 1 2 2 5 5 2 4 5 5 3 2 3 9 14 17 18 17 16 16 17 19 22 27 31 36 37 38 39
2 3 3 4 5 2 6 14 9 18 2 11 9 11 3 4 3 8 9 7 6 7 3 11 13 13 13 22 23 25 28 24 23 23 21 18 21 24 26 29 33 36 37 37
10 6 6 10 2 4 6 13 16 16 12 20 18 25 25 17 11 10 11 8 11 15 16 24 30 26 26 26 28 32 30 30 29 33 28 23 26 28 28 29 32 35 36 35
9 6 12 20 23 23 20 19 16 19 23 22 25 24 31 23 18 20 24 24 25 28 31 39 39 32 28 29 30 40 32 31 33 31 29 29 31 32 31 30 32 34 34 34
4 4 9 16 21 20 22 20 18 21 24 24 30 28 28 33 32 27 28 30 31 28 32 40 41 40 35 39 43 36 35 34 29 32 32 33 35 33 32 31 32 33 32 34
6 3 3 10 11 10 10 20 25 24 23 22 21 27 22 26 23 30 33 29 30 33 37 40 42 38 37 34 33 34 35 32 32 31 32 33 36 34 32 29 29 30 31 32
12 8 3 8 3 13 8 8 18 25 26 25 25 28 30 31 37 45 40 30 38 38 41 40 38 38 32 29 30 29 27 28 30 29 27 26 28 28 28 28 27 28 29 30
18 13 8 10 18 20 23 16 9 10 21 18 19 22 33 38 33 42 39 33 38 36 39 37 34 36 35 32 26 20 18 18 19 20 20 20 20 22 23 24 24 25 27 28
19 21 16 16 18 21 21 18 17 17 18 16 8 12 17 25 14 17 26 28 29 27 28 26 29 23 19 19 16 16 18 18 18 18 17 16 16 16 17 18 19 20 21 22
5 9 17 18 17 14 11 25 20 12 9 3 3 13 16 8 14 28 31 34 33 31 29 26 24 25 23 22 22 19 16 14 14 14 15 15 14 14 14 14 14 14 16 15
9 6 10 12 14 20 9 5 11 4 11 18 19 18 20 27 32 28 32 32 30 30 28 28 27 27 26 23 18 13 12 11 10 10 10 9 8 7 8 8 8 9 9 9
17 15 11 6 3 3 8 11 18 8 19 28 27 28 23 29 33 34 33 36 36 33 29 27 24 20 17 14 13 11 9 6 5 5 5 4 4 5 5 4 3 4 6 6
14 12 11 15 17 11 11 14 17 28 27 32 28 34 29 32 38 39 34 39 37 37 32 27 22 18 14 11 9 8 8 8 7 7 8 9 10 10 11 11 10 8 7 6
10 6 8 12 18 18 27 29 23 24 31 29 29 30 37 33 40 35 35 36 37 33 28 27 22 17 14 14 11 10 10 10 13 15 15 14 14 12 12 12 10 8 7 5
21 17 11 13 17 16 30 35 28 26 26 23 36 42 45 41 44 41 40 36 33 29 26 24 21 20 17 16 15 13 14 12 12 15 15 13 14 15 13 12 11 9 7 5
Wind_Direction
166 212 207 221 224 276 302 269 258 155 95 282 257 266 270 273 267 261 258 257 255 251 248 242 233 241 238 236 233 232 232 234 232 233 233 235 236 237 240 233 232 230 230 230
177 223 232 91 114 230 247 258 263 268 320 261 285 281 276 270 262 257 260 258 255 256 248 240 233 233 241 240 239 235 236 236 235 236 238 238 240 240 243 241 239 239 237 233
225 182 164 177 194 217 235 247 258 266 314 244 287 276 264 245 253 261 259 258 258 255 253 245 237 244 243 240 240 242 241 240 238 237 238 239 239 240 242 245 241 238 236 233
240 161 158 199 225 215 245 218 254 269 280 270 337 288 290 284 272 245 262 257 258 257 254 249 238 241 251 249 244 242 241 240 239 238 237 241 243 246 250 249 245 239 234 232
180 192 199 214 213 199 237 90 195 230 262 297 246 258 264 263 256 264 260 265 268 263 254 247 246 244 243 251 246 243 240 240 240 239 240 242 246 247 248 247 246 240 233 232
283 7 205 231 74 219 133 119 131 219 280 259 245 224 263 253 266 260 269 250 304 285 240 257 264 256 253 249 246 243 241 242 241 242 242 242 246 244 244 247 247 242 235 230
204 218 163 164 129 145 200 181 229 236 205 259 101 228 250 292 283 261 282 290 288 280 280 279 276 267 258 252 246 243 242 240 240 240 241 242 244 244 244 248 247 245 236 230
215 217 189 194 219 179 197 204 210 231 236 270 117 240 261 227 277 269 263 271 287 290 290 285 264 252 254 253 250 247 246 244 246 247 249 249 249 246 246 248 249 249 243 237
214 234 165 178 218 209 173 215 250 275 70 286 251 263 266 205 226 262 270 282 278 285 286 270 256 244 245 246 251 252 254 254 255 258 255 254 252 249 245 249 246 247 246 239
252 259 173 134 193 243 241 226 193 218 217 236 255 262 259 267 272 232 270 291 314 320 313 278 221 233 249 247 250 258 262 263 259 258 258 258 256 254 249 247 246 244 243 242
226 227 122 164 211 197 184 214 225 239 243 244 259 261 278 260 341 238 175 349 2 344 340 316 199 201 203 260 283 279 268 261 263 264 265 266 265 260 255 250 246 244 244 243
227 274 240 218 112 290 242 228 211 214 200 241 283 268 132 3 347 44 292 309 315 324 53 45 25 349 288 316 309 303 292 272 268 269 268 272 269 264 260 254 249 245 244 243
121 282 243 238 217 207 237 225 249 236 259 218 217 253 144 337 243 289 295 325 237 229 268 315 316 295 286 300 302 299 290 280 276 271 267 272 274 267 264 260 252 246 244 242
113 187 229 231 217 86 218 234 234 234 233 245 239 253 268 259 265 267 268 289 284 277 294 300 301 291 286 285 291 298 289 272 275 275 262 271 274 270 264 258 255 250 247 245
170 224 221 246 262 277 274 270 245 223 235 239 258 251 266 274 276 286 293 291 287 290 294 293 292 289 286 284 293 300 286 277 275 270 261 272 272 269 266 260 257 254 249 246
168 252 254 264 260 257 254 250 241 229 232 239 246 258 261 280 282 279 279 276 278 281 280 280 282 283 285 290 296 293 288 284 273 269 265 266 267 267 266 259 257 256 251 246
184 181 169 262 270 275 261 239 239 245 244 243 248 260 274 274 279 282 279 284 287 282 278 280 282 284 288 287 284 282 284 279 275 271 267 266 265 267 266 262 259 257 253 248
256 251 226 281 262 236 238 260 244 244 252 254 254 256 264 270 277 280 278 285 283 280 278 279 282 286 288 277 278 280 278 275 273 271 268 265 262 262 260 260 258 256 253 251
228 247 258 249 257 282 282 258 247 242 257 254 251 256 264 270 274 275 279 277 275 279 278 281 278 280 281 280 281 276 270 269 271 271 269 266 264 260 257 256 256 255 253 251
223 222 226 239 246 260 267 275 271 258 260 273 334 299 288 280 267 274 305 294 291 286 285 278 282 282 279 276 280 280 282 278 271 267 267 267 263 258 256 255 253 252 252 251
202 224 234 238 247 253 255 274 281 255 264 319 0 319 312 307 294 304 311 315 303 292 281 282 278 277 276 277 282 279 275 269 265 264 266 267 266 263 259 256 254 251 249 246
240 228 222 230 239 251 4 311 237 350 345 332 315 299 294 301 300 302 309 315 318 299 287 280 277 273 272 272 268 264 265 269 272 272 269 266 262 260 257 251 246 242 239 233
244 241 256 246 252 226 279 269 283 294 315 312 306 312 291 291 291 298 301 304 310 309 299 286 274 266 256 252 252 248 240 232 237 247 238 211 182 160 148 145 166 188 193 202
253 248 252 271 266 277 270 270 276 294 284 281 289 299 297 286 295 298 295 290 295 295 289 279 266 249 237 228 208 182 166 162 152 145 139 136 133 131 132 133 135 144 153 163
270 298 268 285 270 289 280 282 292 304 302 286 283 296 298 296 293 292 292 293 284 277 273 256 238 228 198 179 175 163 146 134 133 129 123 119 114 112 112 111 107 94 83 92
246 253 258 259 268 272 276 281 290 300 296 278 297 302 293 293 293 298 293 283 271 261 245 226 210 195 182 167 157 147 137 131 131 128 122 118 119 116 113 111 113 114 113 113